Meteo Giornale » Osservazioni meteo Stati Uniti (USA) » Litchfield
ore: 17:15 - Osservazioni Meteo Litchfield
Lat. 45° 5' N Lon. 94° 30' W Alt. 348 metri s.l.m.
28 °C
Sereno
Temp. 24 Ore
21 °C
29 °C
Ovest/Sud-Ovest
7.4 Km/h
Dew point 14 °C
Umidità 42 %
Visibilità 10 Km
Il sole sorge alle ore 06:39
Il sole tramonta alle ore 19:57
| Data e Ora | Cielo e Fenomeni | T °C | DP °C | Um. % | Pres. hPa | Vis. km | Vento km/h | |
|---|---|---|---|---|---|---|---|---|
| Oggi h: 17:15 | Sereno | 28 | 14 | 42 | 1012 | 10 | O/SO 7.4 | |
| Oggi h: 16:55 | Sereno | 29 | 12 | 35 | 1012 | 10 | N 5.5 | |
| Oggi h: 16:35 | Sereno | 29 | 12 | 35 | 1012 | 10 | O 7.4 | |
| Oggi h: 16:15 | Sereno | 29 | 13 | 37 | 1012 | 10 | O 7.4 | |
| Oggi h: 15:55 | Sereno | 29 | 14 | 39 | 1012 | 10 | N 5.5 | |
| Oggi h: 15:35 | Sereno | 29 | 14 | 39 | 1012 | 10 | NO 11.1 | |
| Oggi h: 15:16 | Sereno | 29 | 14 | 39 | 1012 | 10 | O/NO 9.3 | |
| Oggi h: 14:55 | Sereno | 29 | 13 | 37 | 1012 | 10 | O/NO 7.4 | |
| Oggi h: 14:35 | Sereno | 29 | 14 | 39 | 1012 | 10 | O/NO 9.3 | |
| Oggi h: 14:15 | Sereno | 28 | 15 | 45 | 1012 | 10 | O 13 | |
| Oggi h: 13:55 | Sereno | 27 | 15 | 47 | 1012 | 10 | O/NO 9.3 | |
| Oggi h: 13:35 | Sereno | 28 | 14 | 42 | 1012 | 10 | NO 11.1 | |
| Oggi h: 13:15 | Sereno | 27 | 13 | 42 | 1012 | 10 | N/NO 14.8 | |
| Oggi h: 12:56 | Sereno | 27 | 14 | 44 | 1012 | 10 | N/NO 13 | |
| Oggi h: 12:35 | Sereno | 27 | 14 | 44 | 1012 | 10 | O/NO 16.7 | |
| Oggi h: 12:15 | Sereno | 26 | 17 | 57 | 1012 | 10 | NO 11.1 | |
| Oggi h: 11:55 | Sereno | 26 | 18 | 61 | 1012 | 10 | NO 11.1 | |
| Oggi h: 11:35 | Sereno | 26 | 18 | 61 | 1012 | 10 | N/NO 11.1 | |
| Oggi h: 11:15 | Sereno | 26 | 18 | 61 | 1012 | 10 | N/NO 13 | |
| Oggi h: 10:55 | Sereno | 25 | 18 | 65 | 1012 | 10 | N/NO 13 | |
| Oggi h: 10:36 | Sereno | 24 | 19 | 73 | 1011 | 10 | NO 13 | |
| Oggi h: 10:15 | Sereno | 24 | 19 | 73 | 1011 | 10 | N/NO 16.7 | |
| Oggi h: 09:55 | Sereno | 23 | 19 | 78 | 1011 | 10 | O/NO 11.1 | |
| Oggi h: 09:35 | Sereno | 23 | 19 | 78 | 1011 | 10 | NO 9.3 | |
| Oggi h: 09:15 | Sereno | 23 | 20 | 83 | 1010 | 10 | NO 11.1 | |
| Oggi h: 08:55 | Sereno | 23 | 20 | 83 | 1010 | 10 | NO 11.1 | |
| Oggi h: 08:35 | Sereno | 24 | 21 | 83 | 1010 | 10 | NO 14.8 | |
| Oggi h: 08:16 | Sereno | 23 | 21 | 88 | 1010 | 11 | O/NO 7.4 | |
| Oggi h: 07:55 | Sereno | 22 | 21 | 94 | 1009 | 11 | N 0 | |
| Oggi h: 07:35 | Foschia | 22 | 21 | 94 | 1009 | 8 | N 5.5 | |
| Oggi h: 07:15 | Foschia | 21 | 21 | 100 | 1009 | 8 | N 0 | |
| Oggi h: 06:55 | Foschia | 21 | 21 | 100 | 1008 | 6 | N 5.5 | |
| Oggi h: 06:35 | Foschia | 21 | 21 | 100 | 1008 | 6 | N 5.5 | |
| Oggi h: 06:15 | Foschia | 21 | 20 | 94 | 1007 | 6 | N 0 | |
| Oggi h: 05:56 | Sereno | 21 | 20 | 94 | 1008 | 11 | N 0 | |
| Oggi h: 05:35 | Sereno | 21 | 21 | 100 | 1008 | 11 | N 5.5 | |
| Oggi h: 05:15 | Sereno | 21 | 21 | 100 | 1008 | 11 | O 7.4 | |
| Oggi h: 04:55 | Foschia | 21 | 21 | 100 | 1007 | 8 | N 0 | |
| Oggi h: 04:35 | Foschia | 21 | 20 | 94 | 1007 | 8 | N 0 | |
| Oggi h: 04:15 | Foschia | 21 | 21 | 100 | 1007 | 8 | N 0 | |
| Oggi h: 03:55 | Sereno | 22 | 21 | 94 | 1007 | 11 | N 0 | |
| Oggi h: 03:36 | Sereno | 22 | 21 | 94 | 1007 | 11 | N 0 | |
| Oggi h: 03:15 | Sereno | 22 | 21 | 94 | 1007 | 11 | N 0 | |
| Oggi h: 02:55 | Sereno | 22 | 21 | 94 | 1007 | 11 | N 0 | |
| Oggi h: 02:35 | Sereno | 22 | 21 | 94 | 1007 | 11 | N 0 | |
| Oggi h: 02:15 | Sereno | 22 | 21 | 94 | 1007 | 10 | N 0 | |
| Oggi h: 01:55 | Sereno | 23 | 21 | 88 | 1007 | 10 | S/SE 7.4 | |
| Oggi h: 01:35 | Sereno | 23 | 21 | 88 | 1007 | 10 | S 9.3 | |
| Oggi h: 01:16 | Sereno | 23 | 21 | 88 | 1007 | 10 | N 5.5 | |
| Oggi h: 00:55 | Sereno | 23 | 21 | 88 | 1007 | 10 | S/SE 11.1 | |
| Oggi h: 00:35 | Sereno | 23 | 21 | 88 | 1007 | 10 | S/SE 9.3 | |
| Oggi h: 00:15 | Sereno | 23 | 21 | 88 | 1007 | 10 | S/SE 11.1 | |
| Ieri h: 23:55 | Sereno | 23 | 21 | 88 | 1007 | 10 | S/SE 11.1 | |
| Ieri h: 23:35 | Sereno | 23 | 21 | 88 | 1008 | 10 | S/SE 13 | |
| Ieri h: 23:15 | Sereno | 23 | 21 | 88 | 1008 | 10 | SE 9.3 | |
| Ieri h: 22:56 | Sereno | 24 | 21 | 83 | 1008 | 10 | S/SE 9.3 | |
| Ieri h: 22:35 | Sereno | 24 | 21 | 83 | 1008 | 10 | SE 13 | |
| Ieri h: 22:15 | Sereno | 24 | 21 | 83 | 1008 | 10 | S/SE 13 | |
| Ieri h: 21:55 | Sereno | 24 | 21 | 83 | 1007 | 10 | SE 14.8 | |
| Ieri h: 21:35 | Sereno | 24 | 21 | 83 | 1007 | 10 | SE 11.1 | |
| Ieri h: 21:15 | Sereno | 24 | 22 | 88 | 1007 | 10 | SE 13 | |
| Ieri h: 20:55 | Sereno | 24 | 22 | 88 | 1007 | 10 | SE 9.3 | |
| Ieri h: 20:36 | Nuvoloso | 24 | 22 | 88 | 1007 | 10 | E/SE 9.3 | |
| Ieri h: 20:15 | Nuvoloso | 26 | 22 | 78 | 1007 | 10 | E/SE 9.3 | |
| Ieri h: 19:55 | Nuvoloso | 26 | 22 | 78 | 1007 | 10 | E/SE 13 | |
| Ieri h: 19:35 | Molto Nuvoloso | 26 | 22 | 78 | 1007 | 10 | E/SE 11.1 | |
| Ieri h: 19:15 | Nuvoloso | 27 | 22 | 74 | 1007 | 10 | E 11.1 | |
| Ieri h: 18:55 | Sereno | 27 | 22 | 74 | 1007 | 10 | E 13 | |
| Ieri h: 18:35 | Sereno | 28 | 22 | 69 | 1007 | 10 | E/SE 13 | |
| Ieri h: 18:16 | Sereno | 28 | 22 | 69 | 1007 | 10 | E 16.7 | |
| Ieri h: 17:55 | Sereno | 28 | 22 | 69 | 1007 | 10 | E/SE 18.5 | |
| Ieri h: 17:35 | Nuvoloso | 29 | 22 | 66 | 1007 | 10 | E/SE 16.7 | |



